Weather History for KMAE - November, 2011

Change the Weather History Date:

Wednesday, November 9, 2011

  Actual Average Record
Temperature  
Mean Temperature 50 °F 55 °F  
Max Temperature 64 °F 68 °F 79 °F (2001)
Min Temperature 35 °F 43 °F 35 °F (2011)
Degree Days  
Heating Degree Days 15    
Month to date heating degree days 121  
Since 1 July heating degree days 182  
Cooling Degree Days 0    
Month to date cooling degree days 0  
Year to date cooling degree days 1402  
Moisture  
Dew Point 38 °F    
Average Humidity 66    
Maximum Humidity 92    
Minimum Humidity 39    
Precipitation  
Precipitation 0.00 in 0.04 in 0.09 in (2012)
Month to date precipitation 0.47 0.39  
Year to date precipitation 8.61 9.56  
Since 1 July precipitation 1.23 1.56  
Snow  
Snow 0.00 in - - ()
Month to date snowfall 0.0  
Since 1 July snowfall 0.0  
Since 1 September snowfall 0.0  
Snow Depth 0.00 in    
Sea Level Pressure  
Sea Level Pressure 30.24 in    
Wind  
Wind Speed 2 mph (SSE)    
Max Wind Speed 9 mph    
Max Gust Speed 12 mph    
Visibility 6 miles    
Events      
T = Trace of Precipitation, MM = Missing Value Source: NWS Daily Summary

Daily Weather History Graph

Daily Weather History Graph

Search for Another Location

Airport or City:

Trip Planner

Search our weather history database for the weather conditions in past years. The results will help you decide how hot, cold, wet, or windy it might be!

Date:

Astronomy

Nov. 09, 2011 Rise Set
Actual Time 6:32 AM PST 4:55 PM PST
Civil Twilight 6:05 AM PST 5:22 PM PST
Nautical Twilight 5:34 AM PST 5:53 PM PST
Astronomical Twilight 5:03 AM PST 6:24 PM PST
Moon 4:10 PM PST (11/9) 5:33 AM PST (11/9)
Length of Visible Light 11h 17m
Length of Day
10h 22m
Waxing Gibbous, 99% of the Moon is Illuminated
Nov 9
Waxing Gibbous
Nov 10
Full
Nov 18
Last Quarter
Nov 24
New
Dec 2
First Quarter

Hourly Weather History & Observations

Time (PST) Temp. Windchill Dew Point Humidity Pressure Visibility Wind Dir Wind Speed Gust Speed Precip Events Conditions
12:53 AM 41.0 °F - 37.0 °F 86% 30.30 in 4.0 mi Calm Calm - N/A   Clear
1:53 AM 39.0 °F - 36.0 °F 89% 30.30 in 6.0 mi Calm Calm - N/A   Clear
3:53 AM 37.9 °F - 35.1 °F 89% 30.30 in 7.0 mi Calm Calm - N/A   Clear
4:53 AM 37.0 °F - 34.0 °F 89% 30.31 in 9.0 mi Calm Calm - N/A   Clear
5:53 AM 37.0 °F - 33.1 °F 86% 30.31 in 8.0 mi Calm Calm - N/A   Clear
6:53 AM 37.9 °F - 34.0 °F 86% 30.32 in 9.0 mi Calm Calm - N/A   Clear
7:53 AM 43.0 °F - 37.9 °F 82% 30.33 in 7.0 mi North - - N/A   Clear
8:53 AM 48.9 °F - 39.9 °F 71% 30.32 in 7.0 mi SE 8.1 mph - N/A   Clear
10:53 AM 57.0 °F - 41.0 °F 55% 30.29 in 5.0 mi South 3.5 mph - N/A   Haze
11:53 AM 59.0 °F - 41.0 °F 51% 30.25 in 6.0 mi Variable 3.5 mph - N/A   Haze
12:53 PM 62.1 °F - 39.0 °F 43% 30.23 in 6.0 mi South 4.6 mph - N/A   Haze
1:53 PM 63.0 °F - 37.0 °F 38% 30.20 in 7.0 mi South 4.6 mph - N/A   Clear
2:53 PM 63.0 °F - 37.0 °F 38% 30.20 in 6.0 mi West 3.5 mph - N/A   Haze
3:53 PM 62.1 °F - 39.9 °F 44% 30.19 in 5.0 mi Calm Calm - N/A   Haze
4:53 PM 60.1 °F - 37.9 °F 44% 30.18 in 7.0 mi ENE 4.6 mph - N/A   Clear
5:53 PM 57.0 °F - 37.9 °F 49% 30.18 in 8.0 mi ENE 6.9 mph - N/A   Clear
6:53 PM 48.0 °F - 39.9 °F 74% 30.19 in 5.0 mi WNW 3.5 mph - N/A   Haze
7:53 PM 50.0 °F - 39.9 °F 68% 30.17 in 7.0 mi East 6.9 mph - N/A   Clear
8:53 PM 48.0 °F - 39.9 °F 74% 30.19 in 7.0 mi Calm Calm - N/A   Clear
9:53 PM 45.0 °F 42.6 °F 39.9 °F 82% 30.19 in 5.0 mi South 4.6 mph - N/A   Haze
10:53 PM 44.1 °F - 39.0 °F 82% 30.19 in 6.0 mi Calm Calm - N/A   Haze
11:53 PM 45.0 °F 42.6 °F 39.0 °F 80% 30.19 in 5.0 mi NE 4.6 mph - N/A   Haze